OpenBCM V1.13 (Linux)

Packet Radio Mailbox

DB0FHN

[JN59NK Nuernberg]

 Login: GUEST





  
I6KZR  > KEPLER   18.01.03 15:31l 320 Lines 15901 Bytes #999 (0) @ WW
BID : 18898_IK6WID
Read: DB0FHN GUEST
Subj: 2L Keplerian Elements #018
Path: DB0FHN<DB0RGB<DB0MRW<DB0PV<OE2XOM<OE5XBL<OE3XSR<OK0PBX<OK0PRG<OK0PHK<
      OK0NAG<9A0BBS<ZZ2LEW<PU3ACY<KD4GBA<VK3TE<IK6PYS<I6ZLO<IK6WID
Sent: 030118/1326Z @:IK6WID.#AP.IMAR.ITA.EU #:18898 [MONTE URANO]  FBB7.00i
From: I6KZR@IK6WID.#AP.IMAR.ITA.EU
To  : KEPLER@WW


OSCAR 7
1 07530U 74089B   03015.69405182 -.00000029 +00000-0 +10000-3 0 01535
2 07530 101.7674 063.7910 0012521 143.7522 216.4399 12.53563621288943
GOES 2
1 10061U 77048A   03005.42586557 -.00000270  00000-0  00000+0 0   466
2 10061  14.1214  13.7857 0013992 196.1981 163.7785  0.99397401 38395
GOES 3
1 10953U 78062A   03017.02644443 -.00000083  00000-0  00000+0 0  8933
2 10953  13.3952  17.4811 0004573 338.3099  21.7112  1.00278197 43173
GOES 6
1 14050U 83041A   03016.14732176  .00000067  00000-0  10000-3 0  4146
2 14050  10.3570  35.6987 0003031 351.7582   8.3301  1.00292235130300
OSCAR 10
1 14129U 83058B   03013.46521539 -.00000313  00000-0  10000-3 0  9119
2 14129  25.8708 170.2888 6042226 318.8494   8.5240  2.05869613119327
OSCAR 11 (UoSAT 2)
1 14781U 84021B   03018.19740140  .00002400  00000-0  34053-3 0   472
2 14781  98.1128 351.8914 0009122 319.8416  40.2121 14.77899807 11607
NOAA 10
1 16969U 86073A   03017.92692397  .00000285  00000-0  13511-3 0  6304
2 16969  98.7265  12.1094 0012500 175.3696 184.7602 14.27051387849391
GOES 7
1 17561U 87022A   03013.52827387  .00000116  00000-0  10000-3 0  8102
2 17561   7.5470  55.7264 0004064 288.6625 149.4031  1.00317770 41389
COSMOS 1861
1 18129U 87054A   03015.90836747 +.00000093 +00000-0 +84602-4 0 01996
2 18129 082.9238 171.4425 0011208 328.1051 031.9422 13.72697324779896
EUTELSAT 1-F4 (ECS 4)
1 18351U 87078B   03016.60000000 -.00000134  00000-0  00000+0 0   285
2 18351   7.0610  58.7710 0010065 125.6900 263.2870  0.98688648 42356
NOAA 11
1 19531U 88089A   03017.96423409  .00000300  00000-0  17948-3 0  4686
2 19531  98.9074  99.4458 0011080 294.6376  65.3641 14.14522283738335
ASTRA 1A
1 19688U 88109B   03014.99740913  .00000054  00000-0  10000-3 0  5571
2 19688   1.3098  95.0777 0004052 195.2086 188.0162  1.00274118 31859
OSCAR 14 (UOSAT 3)
1 20437U 90005B   03017.54977638  .00000216  00000-0  97369-4 0  1438
2 20437  98.2780  62.6864 0010229 301.5696  58.4494 14.31226446677915
OSCAR 15 (UOSAT 4)
1 20438U 90005C   03017.75600280  .00000160  00000-0  77388-4 0  7633
2 20438  98.2521  52.1455 0009416 313.1617  46.8776 14.30188817677616
OSCAR 16 (PACSAT)
1 20439U 90005D   03016.17193492  .00000259  00000-0  11339-3 0  8386
2 20439  98.3230  72.8602 0010514 311.9591  48.0702 14.31457712677758
OSCAR 17 (DOVE)
1 20440U 90005E   03015.74801290  .00000261  00000-0  11329-3 0  7204
2 20440  98.3430  76.2682 0010773 312.4728  47.5545 14.31733637677766
OSCAR 18 (WEBERSAT)
1 20441U 90005F   03018.18160395  .00000257  00000-0  11217-3 0  9900
2 20441  98.3402  77.8394 0011149 305.9497  54.0652 14.31540685678099
OSCAR 19 (LUSAT)
1 20442U 90005G   03018.23348628  .00000260  00000-0  11305-3 0  9423
2 20442  98.3539  80.8569 0011605 304.8086  55.2005 14.31703286678158
JAS 1B (FUJI 2)
1 20480U 90013C   03015.94600957 +.00000035 +00000-0 +14159-3 0 04644
2 20480 099.0412 345.0237 0540894 080.0077 286.1595 12.83328471606206
HST
1 20580U 90037B   03018.04399382  .00002827  00000-0  22230-3 0  3012
2 20580  28.4665 242.8562 0003741 291.6395 189.7463 14.97686798497909
EUTELSAT 2-F1
1 20777U 90079B   03016.98027935 -.00000086  00000-0  10000-3 0   171
2 20777   3.4236  84.8341 0001209 164.5241 295.5979  1.00271905 25778
FENGYUN 1B
1 20788U 90081A   03018.20718995  .00000081  00000-0  81966-4 0  8606
2 20788  99.0241   0.7022 0015407 318.7754  41.2247 14.02140457633140
EUTELSAT 2-F2
1 21056U 91003B   03015.13799191  .00000137  00000-0  10000-3 0  6101
2 21056   2.6484  88.2265 0002557 220.6689 263.3892  1.00276352 31534
INFORMATOR 1
1 21087U 91006A   03015.93787762 +.00000091 +00000-0 +79717-4 0 05982
2 21087 082.9412 342.3085 0035746 346.9738 013.0488 13.74922550600262
COSMOS 2123
1 21089U 91007A   03016.56241514  .00000062  00000-0  49501-4 0  4834
2 21089  82.9207 205.8619 0030456  20.4392 339.7974 13.74400391599253
ASTRA 1B
1 21139U 91015A   03013.00000000  .00000139  00000-0  10000-3 0  1572
2 21139   0.0122 319.8851 0002995  65.1991 106.1713  1.00273184 31823
METEOSAT 5 (MOP 2)
1 21140U 91015B   03013.79937034  .00000033  00000-0  10000-3 0  6743
2 21140   5.5436  70.1592 0006787 127.4334 266.1645  1.00269198 45699
NOAA 12
1 21263U 91032A   03017.95855913  .00000482  00000-0  22409-3 0  9348
2 21263  98.6227   8.1281 0013493 111.3318 248.9302 14.25058167606715
OSCAR 22 (UoSAT 5)
1 21575U 91050B   03018.15141504  .00000508  00000-0  17723-3 0  7037
2 21575  98.1368  11.8641 0006458 226.0982 133.9674 14.39131307603767
METEOR 3-5
1 21655U 91056A   03018.22201542  .00000051  00000-0  10000-3 0  4928
2 21655  82.5559  61.0167 0012467 279.0573  80.9139 13.16978634549353
UARS
1 21701U 91063B   03017.70004368  .00001450  00000-0  12639-3 0  8026
2 21701  56.9787 161.0317 0005935 114.5371 245.6275 15.02788928620928
EUTELSAT 2-F3
1 21803U 91083A   03017.04828705  .00000143  00000-0  10000-3 0  5099
2 21803   2.5176  89.5149 0002865 229.0832 196.3458  1.00277902 36676
INMARSAT 2-F3
1 21814U 91084B   03017.47629919  .00000125  00000-0  10000-3 0  6018
2 21814   1.6809  56.9039 0002425 249.1327 199.8717  1.00274344 40578
INMARSAT 2-F4
1 21940U 92021B   03011.73058354 -.00000338  00000-0  10000-3 0  5636
2 21940   2.3763  17.8930 0001952 236.1416 228.8141  1.00271383 39303
EUTELSAT 2-F4
1 22028U 92041B   03016.26524307 -.00000083  00000-0  10000-3 0  3179
2 22028   1.6368  93.0537 0005956 210.0088 255.3866  1.00272365 31444
OSCAR 23 (KITSAT 1)
1 22077U 92052B   03015.90463546 -.00000037 +00000-0 +10000-3 0 01854
2 22077 066.0842 196.2267 0014873 281.9527 077.9826 12.86407673489976
ASTRA 1C
1 22653U 93031A   03013.00000000  .00000139  00000-0  10000-3 0  7839
2 22653   0.0122 319.8851 0002995  65.1991 106.1253  1.00273184 30520
METEOR 2-21
1 22782U 93055A   03017.49709434  .00000094  00000-0  71269-4 0  4946
2 22782  82.5479 240.3327 0023706  76.9364 283.4440 13.83529455473657
KITSAT B
1 22825U 93061C   03017.54227315  .00000228  00000-0  10661-3 0  4644
2 22825  98.2780  48.8679 0008761   1.0918 359.0289 14.28931039485304
POSAT 1
1 22826U 93061D   03016.59736716  .00000224  00000-0  10448-3 0  2961
2 22826  98.2785  49.0703 0009467   1.8937 358.2279 14.29152235485218
ITAMSAT
1 22828U 93061F   03018.12547163  .00000210  00000-0  98274-4 0  4040
2 22828  98.2748  50.7862 0010209 336.7339  23.3379 14.29497066453632
EYESAT A
1 22829U 93061G   03017.16056328  .00000341  00000-0  14884-3 0  4276
2 22829  98.2769  50.4583 0009999 340.2605  19.8189 14.29750720485423
METEOSAT 6
1 22912U 93073B   03017.04271413  .00000075  00000-0  00000+0 0  6393
2 22912   2.6012  82.5770 0000827 254.3444 163.7808  1.00272768 31977
GOES 8
1 23051U 94022A   03017.30501791 -.00000231  00000-0  00000+0 0  5649
2 23051   0.2214 106.0513 0002352 195.8509 208.6725  1.00258713 39488
ASTRA 1D
1 23331U 94070A   03017.04980904  .00000155  00000-0  00000+0 0  8031
2 23331   0.0478 216.7253 0002038 134.0468 167.3539  1.00272577 30545
RADIO ROSTO
1 23439U 94085A   03018.16267362 -.00000042  00000-0  24293-4 0  6765
2 23439  64.8160  92.2698 0147649 121.3252 240.2220 11.27547996332057
NOAA 14
1 23455U 94089A   03017.96998835  .00000183  00000-0  12257-3 0  4893
2 23455  99.1878  35.7059 0008883 321.9430  38.1112 14.13284474415016
HIMAWARI 5 (GMS 5)
1 23522U 95011B   03016.75351536 -.00000265  00000-0  00000+0 0   573
2 23522   1.6782  83.1377 0000743  96.9895 347.1114  1.00268977 28561
HOT BIRD 1
1 23537U 95016B   03013.80550721  .00000107  00000-0  10000-3 0  5332
2 23537   0.0070 236.2796 0008090  86.9786  92.5958  1.00275871 28611
GOES 9
1 23581U 95025A   03017.41178810  .00000106  00000-0  00000+0 0  4778
2 23581   0.3599 278.0713 0007570 223.9498 351.8607  1.00034711 28042
INMARSAT 3-F1
1 23839U 96020A   03015.66256007  .00000035  00000-0  00000+0 0  8506
2 23839   0.0480  13.1970 0005506 300.1486 103.7184  1.00273536 24870
ASTRA 1F
1 23842U 96021A   03013.00000000  .00000139  00000-0  10000-3 0  5560
2 23842   0.0122 319.8851 0002995  65.1991 106.1837  1.00273184 24757
JAS 2
1 24278U 96046B   03015.89128264 +.00000038 +00000-0 +77288-4 0 05541
2 24278 098.5278 171.6898 0350273 303.9135 052.9154 13.52869339316755
UNAMSAT
1 24305U 96052B   03017.21531561  .00000205  00000-0  20364-3 0  6555
2 24305  82.9363 286.7112 0029094 295.9635  63.8513 13.73447196319045
INMARSAT 3-F2
1 24307U 96053A   03017.17607640 -.00000107  00000-0  00000+0 0   721
2 24307   0.0559  16.1481 0005610 281.6129 226.2895  1.00271515 23291
HOT BIRD 2
1 24665U 96067A   03013.80550721  .00000107  00000-0  10000-3 0  3396
2 24665   0.0284 278.7326 0008090  44.5257  92.5403  1.00273403 22904
INMARSAT 3-F3
1 24674U 96070A   03016.38370587  .00000057  00000-0  10000-3 0  9701
2 24674   0.0598 309.8373 0004190 345.5653 136.2376  1.00270487 22253
GOES 10
1 24786U 97019A   03017.73348087  .00000102  00000-0  00000+0 0  5071
2 24786   0.0624 110.4217 0003191 210.7868 284.4845  1.00281221 21019
INMARSAT 3-F4
1 24819U 97027A   03017.04658566 -.00000269  00000-0  10000-3 0  8665
2 24819   0.0607 298.2415 0003813 357.5140 143.0893  1.00273348 20682
FENGYUN 2A
1 24834U 97029A   03008.98957809 -.00000188  00000-0  00000+0 0  9429
2 24834   2.4721  88.7751 0002867 256.9049 204.9633  1.00265824 20437
HOT BIRD 3
1 24931U 97049A   03013.80550721  .00000107  00000-0  10000-3 0  4204
2 24931   0.0673 233.2523 0010443 100.7649  81.7511  1.00274844 19728
METEOSAT 7
1 24932U 97049B   03017.84274885  .00000010  00000-0  00000+0 0  2304
2 24932   0.1432  48.2973 0001404 233.8444 138.0308  1.00273924 19700
